Time,TemperatureF,DewpointF,PressureIn,WindDirection,WindDirectionDegrees,WindSpeedMPH,WindSpeedGustMPH,Humidity,HourlyPrecipIn,Conditions,Clouds,dailyrainin,SoftwareType,DateUTC
2013-02-05 00:00:00,45.7,39.2,29.85,WSW,248,1.4,3.6,78,0.00,,,0.00,WUHU216HW,2013-02-05 08:00:00,
2013-02-05 00:05:00,45.7,39.0,29.84,WSW,248,3.4,4.0,77,0.00,,,0.00,WUHU216HW,2013-02-05 08:05:00,
2013-02-05 00:10:00,45.7,39.2,29.84,WSW,240,3.1,4.0,78,0.00,,,0.00,WUHU216HW,2013-02-05 08:10:00,
2013-02-05 00:15:00,45.7,39.2,29.84,SSW,203,4.7,5.4,78,0.00,,,0.00,WUHU216HW,2013-02-05 08:15:00,
2013-02-05 00:20:00,45.7,39.2,29.84,SSW,203,3.4,6.3,78,0.00,,,0.00,WUHU216HW,2013-02-05 08:20:00,
2013-02-05 00:25:00,45.9,39.4,29.84,SSE,158,2.5,6.3,78,0.00,,,0.00,WUHU216HW,2013-02-05 08:25:00,
2013-02-05 00:30:00,46.1,39.6,29.84,SW,225,4.7,6.3,78,0.00,,,0.00,WUHU216HW,2013-02-05 08:30:00,
2013-02-05 00:35:00,46.1,40.0,29.84,WSW,248,6.9,7.2,79,0.00,,,0.00,WUHU216HW,2013-02-05 08:35:00,
2013-02-05 00:40:00,46.4,40.0,29.84,WSW,248,4.7,7.2,78,0.00,,,0.00,WUHU216HW,2013-02-05 08:40:00,
2013-02-05 00:45:00,46.4,40.0,29.84,SW,231,5.1,7.6,78,0.00,,,0.00,WUHU216HW,2013-02-05 08:45:00,
2013-02-05 00:50:00,46.4,40.0,29.84,SW,225,2.5,7.6,78,0.00,,,0.00,WUHU216HW,2013-02-05 08:50:00,
2013-02-05 00:55:00,46.3,39.8,29.84,SW,225,4.5,6.5,78,0.00,,,0.00,WUHU216HW,2013-02-05 08:55:00,
2013-02-05 01:00:00,46.3,39.8,29.84,WSW,248,3.4,6.5,78,0.00,,,0.00,WUHU216HW,2013-02-05 09:00:00,
2013-02-05 01:05:00,46.3,39.8,29.84,WSW,248,5.1,5.6,78,0.00,,,0.00,WUHU216HW,2013-02-05 09:05:00,
2013-02-05 01:11:00,46.3,39.8,29.84,SW,234,4.0,6.3,78,0.00,,,0.00,WUHU216HW,2013-02-05 09:11:00,
2013-02-05 01:16:00,46.4,40.0,29.84,WSW,248,4.0,7.8,78,0.00,,,0.00,WUHU216HW,2013-02-05 09:16:00,
2013-02-05 01:21:00,46.4,40.0,29.84,SW,223,3.6,7.8,78,0.00,,,0.00,WUHU216HW,2013-02-05 09:21:00,
2013-02-05 01:26:00,46.4,40.0,29.84,SW,219,2.9,6.0,78,0.00,,,0.00,WUHU216HW,2013-02-05 09:26:00,
2013-02-05 01:31:00,46.4,40.0,29.84,SSW,193,1.4,6.5,78,0.00,,,0.00,WUHU216HW,2013-02-05 09:31:00,
2013-02-05 01:36:00,46.4,40.0,29.84,SSE,158,4.5,6.5,78,0.00,,,0.00,WUHU216HW,2013-02-05 09:36:00,
2013-02-05 01:41:00,46.3,39.8,29.84,SW,216,3.7,6.3,78,0.00,,,0.00,WUHU216HW,2013-02-05 09:41:00,
2013-02-05 01:46:00,46.3,39.8,29.84,South,188,1.9,6.3,78,0.00,,,0.00,WUHU216HW,2013-02-05 09:46:00,
2013-02-05 01:51:00,46.3,39.8,29.84,SSE,156,2.8,4.7,78,0.00,,,0.00,WUHU216HW,2013-02-05 09:51:00,
2013-02-05 01:56:00,46.3,39.8,29.84,South,176,3.1,4.7,78,0.00,,,0.00,WUHU216HW,2013-02-05 09:56:00,
2013-02-05 02:01:00,46.3,39.8,29.84,SSW,206,3.1,6.3,78,0.00,,,0.00,WUHU216HW,2013-02-05 10:01:00,
2013-02-05 02:06:00,46.3,39.8,29.84,South,180,2.2,6.3,78,0.00,,,0.00,WUHU216HW,2013-02-05 10:06:00,
2013-02-05 02:11:00,46.3,39.8,29.84,South,181,2.7,5.8,78,0.00,,,0.00,WUHU216HW,2013-02-05 10:11:00,
2013-02-05 02:16:00,46.3,39.8,29.84,SSE,156,2.8,5.8,78,0.00,,,0.00,WUHU216HW,2013-02-05 10:16:00,
2013-02-05 02:21:00,46.1,39.6,29.84,SE,135,3.4,4.3,78,0.00,,,0.00,WUHU216HW,2013-02-05 10:21:00,
2013-02-05 02:27:00,46.1,39.6,29.84,SE,135,4.9,5.1,78,0.00,,,0.00,WUHU216HW,2013-02-05 10:27:00,
2013-02-05 02:32:00,45.9,39.4,29.84,SE,135,3.4,5.1,78,0.00,,,0.00,WUHU216HW,2013-02-05 10:32:00,
2013-02-05 02:37:00,45.7,39.2,29.84,SSE,162,2.7,4.3,78,0.00,,,0.00,WUHU216HW,2013-02-05 10:37:00,
2013-02-05 02:42:00,45.7,39.2,29.84,SSE,158,4.7,4.7,78,0.00,,,0.00,WUHU216HW,2013-02-05 10:42:00,
2013-02-05 02:47:00,45.7,39.2,29.83,ESE,113,3.4,5.4,78,0.00,,,0.00,WUHU216HW,2013-02-05 10:47:00,
2013-02-05 02:52:00,45.5,39.1,29.83,ESE,113,1.3,6.3,78,0.00,,,0.00,WUHU216HW,2013-02-05 10:52:00,
2013-02-05 02:57:00,45.7,39.2,29.83,SSW,208,3.3,6.3,78,0.00,,,0.00,WUHU216HW,2013-02-05 10:57:00,
2013-02-05 03:02:00,45.5,39.1,29.82,South,179,1.7,4.9,78,0.00,,,0.00,WUHU216HW,2013-02-05 11:02:00,
2013-02-05 03:07:00,45.5,39.1,29.82,SSE,158,3.1,3.4,78,0.00,,,0.00,WUHU216HW,2013-02-05 11:07:00,
2013-02-05 03:12:00,45.5,39.1,29.82,SW,225,1.1,4.3,78,0.00,,,0.00,WUHU216HW,2013-02-05 11:12:00,
2013-02-05 03:17:00,45.5,39.1,29.82,North,0,1.1,4.3,78,0.00,,,0.00,WUHU216HW,2013-02-05 11:17:00,
2013-02-05 03:22:00,45.5,38.8,29.82,NE,53,1.7,2.0,77,0.00,,,0.00,WUHU216HW,2013-02-05 11:22:00,
2013-02-05 03:27:00,45.4,38.6,29.81,ENE,68,0.8,2.5,77,0.00,,,0.00,WUHU216HW,2013-02-05 11:27:00,
2013-02-05 03:33:00,45.4,38.9,29.82,SE,129,1.4,2.5,78,0.00,,,0.00,WUHU216HW,2013-02-05 11:33:00,
2013-02-05 03:38:00,45.4,38.6,29.81,SSE,158,1.8,2.5,77,0.00,,,0.00,WUHU216HW,2013-02-05 11:38:00,
2013-02-05 03:43:00,45.4,38.6,29.81,SW,225,1.1,2.5,77,0.00,,,0.00,WUHU216HW,2013-02-05 11:43:00,
2013-02-05 03:48:00,45.2,38.4,29.81,WNW,293,0.4,2.5,77,0.00,,,0.00,WUHU216HW,2013-02-05 11:48:00,
2013-02-05 03:53:00,45.2,38.4,29.81,West,261,1.7,1.8,77,0.00,,,0.00,WUHU216HW,2013-02-05 11:53:00,
2013-02-05 03:58:00,45.2,38.4,29.81,South,180,3.4,4.7,77,0.00,,,0.00,WUHU216HW,2013-02-05 11:58:00,
2013-02-05 04:03:00,45.2,38.4,29.81,SSW,199,3.3,5.4,77,0.00,,,0.00,WUHU216HW,2013-02-05 12:03:00,
2013-02-05 04:08:00,45.0,38.3,29.81,SSW,213,1.8,6.3,77,0.00,,,0.00,WUHU216HW,2013-02-05 12:08:00,
2013-02-05 04:13:00,45.0,38.3,29.82,WNW,293,2.5,6.3,77,0.00,,,0.00,WUHU216HW,2013-02-05 12:13:00,
2013-02-05 04:18:00,45.0,38.3,29.82,WSW,248,2.9,4.7,77,0.00,,,0.00,WUHU216HW,2013-02-05 12:18:00,
2013-02-05 04:24:00,45.0,38.3,29.82,WSW,248,1.3,3.4,77,0.00,,,0.00,WUHU216HW,2013-02-05 12:24:00,
2013-02-05 04:29:00,44.8,38.1,29.81,West,270,2.5,2.9,77,0.00,,,0.00,WUHU216HW,2013-02-05 12:29:00,
2013-02-05 04:34:00,44.6,37.9,29.81,WNW,282,0.9,3.1,77,0.00,,,0.00,WUHU216HW,2013-02-05 12:34:00,
2013-02-05 04:39:00,44.6,37.5,29.81,SW,232,1.0,3.1,76,0.00,,,0.00,WUHU216HW,2013-02-05 12:39:00,
2013-02-05 04:44:00,44.6,37.5,29.81,West,270,1.3,1.6,76,0.00,,,0.00,WUHU216HW,2013-02-05 12:44:00,
2013-02-05 04:49:00,44.6,37.2,29.81,WSW,244,1.9,3.6,75,0.00,,,0.00,WUHU216HW,2013-02-05 12:49:00,
2013-02-05 04:54:00,44.5,37.0,29.81,SW,225,2.7,3.6,75,0.00,,,0.00,WUHU216HW,2013-02-05 12:54:00,
2013-02-05 04:59:00,44.5,36.6,29.82,West,270,2.5,2.7,74,0.00,,,0.00,WUHU216HW,2013-02-05 12:59:00,
2013-02-05 05:04:00,44.5,36.4,29.82,WSW,248,2.7,2.7,73,0.00,,,0.00,WUHU216HW,2013-02-05 13:04:00,
2013-02-05 05:09:00,44.5,36.6,29.82,WSW,239,1.3,2.7,74,0.01,,,0.01,WUHU216HW,2013-02-05 13:09:00,
2013-02-05 05:14:00,44.5,36.6,29.82,WSW,241,0.5,2.2,74,0.01,,,0.01,WUHU216HW,2013-02-05 13:14:00,
2013-02-05 05:19:00,44.3,36.5,29.81,WSW,241,0.4,1.1,74,0.02,,,0.02,WUHU216HW,2013-02-05 13:19:00,
2013-02-05 05:24:00,44.3,36.5,29.81,NW,311,0.6,0.9,74,0.02,,,0.02,WUHU216HW,2013-02-05 13:24:00,
2013-02-05 05:29:00,44.3,36.2,29.81,NW,315,0.0,0.9,73,0.02,,,0.02,WUHU216HW,2013-02-05 13:29:00,
2013-02-05 05:34:00,44.1,36.0,29.81,WSW,248,0.4,0.4,73,0.02,,,0.02,WUHU216HW,2013-02-05 13:34:00,
2013-02-05 05:39:00,44.1,35.6,29.81,South,180,0.4,0.7,72,0.02,,,0.02,WUHU216HW,2013-02-05 13:39:00,
2013-02-05 05:45:00,43.9,35.5,29.80,SSE,152,0.5,1.1,72,0.02,,,0.02,WUHU216HW,2013-02-05 13:45:00,
2013-02-05 05:50:00,43.9,35.2,29.80,NW,316,0.9,2.2,71,0.03,,,0.03,WUHU216HW,2013-02-05 13:50:00,
2013-02-05 05:55:00,43.9,34.5,29.80,WSW,241,0.9,3.1,69,0.03,,,0.03,WUHU216HW,2013-02-05 13:55:00,
2013-02-05 06:00:00,43.9,34.0,29.79,SSW,195,1.9,3.1,68,0.03,,,0.03,WUHU216HW,2013-02-05 14:00:00,
2013-02-05 06:05:00,43.9,33.7,29.80,South,169,3.4,4.7,67,0.03,,,0.03,WUHU216HW,2013-02-05 14:05:00,
2013-02-05 06:10:00,43.9,34.0,29.79,West,270,1.2,4.7,68,0.02,,,0.03,WUHU216HW,2013-02-05 14:10:00,
2013-02-05 06:15:00,43.9,32.9,29.80,West,270,1.6,1.8,65,0.02,,,0.03,WUHU216HW,2013-02-05 14:15:00,
2013-02-05 06:20:00,43.9,31.8,29.80,WSW,248,0.9,1.8,62,0.01,,,0.03,WUHU216HW,2013-02-05 14:20:00,
2013-02-05 06:25:00,43.9,31.0,29.80,WNW,293,0.9,2.9,60,0.01,,,0.03,WUHU216HW,2013-02-05 14:25:00,
2013-02-05 06:30:00,43.9,31.0,29.80,SE,135,1.6,3.4,60,0.01,,,0.03,WUHU216HW,2013-02-05 14:30:00,
2013-02-05 06:36:00,43.9,31.8,29.80,SSW,203,2.7,3.4,62,0.01,,,0.03,WUHU216HW,2013-02-05 14:36:00,
2013-02-05 06:41:00,43.9,31.3,29.80,South,174,2.1,4.3,61,0.01,,,0.03,WUHU216HW,2013-02-05 14:41:00,
2013-02-05 06:46:00,43.9,30.1,29.80,WSW,243,2.0,4.3,58,0.01,,,0.03,WUHU216HW,2013-02-05 14:46:00,
2013-02-05 06:51:00,43.9,28.7,29.80,SW,225,2.9,3.8,55,0.00,,,0.03,WUHU216HW,2013-02-05 14:51:00,
2013-02-05 06:56:00,43.9,28.7,29.80,South,180,2.9,5.1,55,0.00,,,0.03,WUHU216HW,2013-02-05 14:56:00,
2013-02-05 07:01:00,43.9,30.1,29.80,SSE,167,1.2,5.1,58,0.00,,,0.03,WUHU216HW,2013-02-05 15:01:00,
2013-02-05 07:06:00,43.9,27.9,29.80,SSE,158,3.1,5.4,53,0.00,,,0.03,WUHU216HW,2013-02-05 15:06:00,
2013-02-05 07:11:00,43.9,27.9,29.80,WSW,248,1.8,5.4,53,0.00,,,0.03,WUHU216HW,2013-02-05 15:11:00,
2013-02-05 07:16:00,43.9,28.3,29.80,SSW,203,1.6,4.3,54,0.00,,,0.03,WUHU216HW,2013-02-05 15:16:00,
2013-02-05 07:21:00,43.9,26.6,29.80,SE,135,3.4,4.7,50,0.00,,,0.03,WUHU216HW,2013-02-05 15:21:00,
2013-02-05 07:26:00,43.9,26.6,29.80,SW,234,2.6,5.4,50,0.00,,,0.03,WUHU216HW,2013-02-05 15:26:00,
2013-02-05 07:32:00,43.9,27.9,29.80,WSW,248,1.8,5.4,53,0.00,,,0.03,WUHU216HW,2013-02-05 15:32:00,
2013-02-05 07:37:00,44.1,26.7,29.80,SSW,203,2.5,3.4,50,0.00,,,0.03,WUHU216HW,2013-02-05 15:37:00,
2013-02-05 07:42:00,44.1,27.2,29.80,SSW,201,2.9,4.7,51,0.00,,,0.03,WUHU216HW,2013-02-05 15:42:00,
2013-02-05 07:47:00,44.1,26.7,29.81,SSW,206,3.2,6.3,50,0.00,,,0.03,WUHU216HW,2013-02-05 15:47:00,
2013-02-05 07:52:00,44.3,26.3,29.81,South,180,6.3,6.3,49,0.00,,,0.03,WUHU216HW,2013-02-05 15:52:00,
2013-02-05 07:57:00,44.3,26.3,29.81,South,180,3.0,6.7,49,0.00,,,0.03,WUHU216HW,2013-02-05 15:57:00,
2013-02-05 08:02:00,44.3,27.3,29.81,South,180,6.9,6.9,51,0.00,,,0.03,WUHU216HW,2013-02-05 16:02:00,
2013-02-05 08:07:00,44.3,26.3,29.81,South,181,3.5,6.9,49,0.00,,,0.03,WUHU216HW,2013-02-05 16:07:00,
2013-02-05 08:12:00,44.3,26.3,29.81,South,181,4.0,8.7,49,0.00,,,0.03,WUHU216HW,2013-02-05 16:12:00,
2013-02-05 08:17:00,44.3,26.8,29.81,South,181,3.9,8.7,50,0.00,,,0.03,WUHU216HW,2013-02-05 16:17:00,
2013-02-05 08:23:00,44.3,26.8,29.81,South,180,7.6,7.6,50,0.00,,,0.03,WUHU216HW,2013-02-05 16:23:00,
2013-02-05 08:28:00,44.3,26.8,29.81,South,169,5.0,8.3,50,0.00,,,0.03,WUHU216HW,2013-02-05 16:28:00,
2013-02-05 08:33:00,44.5,25.9,29.81,South,176,4.5,8.3,48,0.00,,,0.03,WUHU216HW,2013-02-05 16:33:00,
2013-02-05 08:38:00,44.6,26.1,29.81,South,177,4.3,6.5,48,0.00,,,0.03,WUHU216HW,2013-02-05 16:38:00,
2013-02-05 08:43:00,44.8,25.2,29.81,South,180,7.6,7.6,46,0.00,,,0.03,WUHU216HW,2013-02-05 16:43:00,
2013-02-05 08:48:00,44.8,25.2,29.82,SSW,208,2.7,7.6,46,0.00,,,0.03,WUHU216HW,2013-02-05 16:48:00,
2013-02-05 08:53:00,45.0,25.4,29.82,SSW,200,5.4,7.6,46,0.00,,,0.03,WUHU216HW,2013-02-05 16:53:00,
2013-02-05 08:58:00,45.2,25.5,29.82,South,180,3.8,7.6,46,0.00,,,0.03,WUHU216HW,2013-02-05 16:58:00,
2013-02-05 09:03:00,45.4,25.7,29.82,South,188,4.0,5.6,46,0.00,,,0.03,WUHU216HW,2013-02-05 17:03:00,
2013-02-05 09:08:00,45.5,25.3,29.82,SSW,210,4.9,7.2,45,0.00,,,0.03,WUHU216HW,2013-02-05 17:08:00,
2013-02-05 09:13:00,45.7,25.5,29.82,SSW,196,5.6,8.1,45,0.00,,,0.03,WUHU216HW,2013-02-05 17:13:00,
2013-02-05 09:19:00,45.7,25.5,29.82,SSW,203,4.0,8.1,45,0.00,,,0.03,WUHU216HW,2013-02-05 17:19:00,
2013-02-05 09:24:00,45.7,25.5,29.82,WSW,240,2.6,5.1,45,0.01,,,0.04,WUHU216HW,2013-02-05 17:24:00,
2013-02-05 09:29:00,45.7,23.9,29.82,WSW,242,3.4,8.9,42,0.02,,,0.05,WUHU216HW,2013-02-05 17:29:00,
2013-02-05 09:34:00,45.7,22.1,29.83,SW,220,2.4,8.9,39,0.02,,,0.05,WUHU216HW,2013-02-05 17:34:00,
2013-02-05 09:39:00,45.7,22.8,29.83,SSW,201,2.6,6.7,40,0.02,,,0.05,WUHU216HW,2013-02-05 17:39:00,
2013-02-05 09:44:00,45.9,20.3,29.83,SSW,201,3.8,6.3,36,0.03,,,0.06,WUHU216HW,2013-02-05 17:44:00,
2013-02-05 09:49:00,46.1,19.7,29.83,South,175,4.0,6.3,35,0.04,,,0.07,WUHU216HW,2013-02-05 17:49:00,
2013-02-05 09:54:00,46.1,17.7,29.83,SSW,203,5.8,6.9,32,0.04,,,0.07,WUHU216HW,2013-02-05 17:54:00,
2013-02-05 09:59:00,46.3,19.3,29.83,South,180,4.5,6.9,34,0.04,,,0.07,WUHU216HW,2013-02-05 17:59:00,
2013-02-05 10:04:00,46.4,18.1,29.83,South,176,3.2,6.3,32,0.04,,,0.07,WUHU216HW,2013-02-05 18:04:00,
2013-02-05 10:09:00,46.6,18.9,29.83,SE,144,4.4,6.9,33,0.04,,,0.07,WUHU216HW,2013-02-05 18:09:00,
2013-02-05 10:14:00,47.0,18.5,29.83,SSW,203,2.7,9.2,32,0.04,,,0.07,WUHU216HW,2013-02-05 18:14:00,
2013-02-05 10:19:00,47.3,17.6,29.83,South,190,5.1,9.2,30,0.05,,,0.08,WUHU216HW,2013-02-05 18:19:00,
2013-02-05 10:24:00,47.5,18.4,29.83,SW,225,6.3,7.6,31,0.04,,,0.08,WUHU216HW,2013-02-05 18:24:00,
2013-02-05 10:30:00,47.9,20.7,29.83,South,181,6.6,9.8,34,0.03,,,0.08,WUHU216HW,2013-02-05 18:30:00,
2013-02-05 10:35:00,48.1,22.2,29.83,SSW,192,4.9,9.8,36,0.03,,,0.08,WUHU216HW,2013-02-05 18:35:00,
2013-02-05 10:40:00,48.2,24.4,29.83,SSW,203,8.1,8.7,39,0.03,,,0.08,WUHU216HW,2013-02-05 18:40:00,
2013-02-05 10:45:00,48.8,24.9,29.83,SSW,203,7.4,9.2,39,0.02,,,0.08,WUHU216HW,2013-02-05 18:45:00,
2013-02-05 10:50:00,49.1,26.4,29.83,SE,143,6.0,12.1,41,0.01,,,0.08,WUHU216HW,2013-02-05 18:50:00,
2013-02-05 10:55:00,49.5,30.1,29.83,SE,135,6.3,12.1,47,0.01,,,0.08,WUHU216HW,2013-02-05 18:55:00,
2013-02-05 11:00:00,49.9,34.3,29.83,South,173,5.4,11.0,55,0.01,,,0.08,WUHU216HW,2013-02-05 19:00:00,
2013-02-05 11:05:00,49.9,34.7,29.83,South,183,3.3,7.6,56,0.01,,,0.08,WUHU216HW,2013-02-05 19:05:00,
2013-02-05 11:10:00,49.5,37.0,29.83,SSW,203,4.5,6.5,62,0.01,,,0.08,WUHU216HW,2013-02-05 19:10:00,
2013-02-05 11:15:00,49.7,35.5,29.83,South,180,4.5,6.5,58,0.01,,,0.08,WUHU216HW,2013-02-05 19:15:00,
2013-02-05 11:21:00,49.9,34.7,29.83,SE,135,3.1,5.4,56,0.00,,,0.08,WUHU216HW,2013-02-05 19:21:00,
2013-02-05 11:26:00,49.7,37.5,29.83,SE,135,6.3,7.4,63,0.00,,,0.08,WUHU216HW,2013-02-05 19:26:00,
2013-02-05 11:31:00,49.9,36.5,29.83,SSW,193,2.6,7.4,60,0.00,,,0.08,WUHU216HW,2013-02-05 19:31:00,
2013-02-05 11:36:00,50.0,37.9,29.83,WSW,248,4.9,6.9,63,0.00,,,0.08,WUHU216HW,2013-02-05 19:36:00,
2013-02-05 11:41:00,50.0,36.7,29.83,WNW,293,3.4,5.6,60,0.00,,,0.08,WUHU216HW,2013-02-05 19:41:00,
2013-02-05 11:46:00,50.0,38.4,29.83,WSW,250,5.7,6.9,64,0.00,,,0.08,WUHU216HW,2013-02-05 19:46:00,
2013-02-05 11:51:00,49.9,37.4,29.83,SSW,203,4.7,6.9,62,0.00,,,0.08,WUHU216HW,2013-02-05 19:51:00,
2013-02-05 11:56:00,50.0,37.5,29.82,WSW,241,2.3,6.3,62,0.00,,,0.08,WUHU216HW,2013-02-05 19:56:00,
2013-02-05 12:01:00,50.0,38.4,29.82,WSW,257,4.7,6.5,64,0.00,,,0.08,WUHU216HW,2013-02-05 20:01:00,
2013-02-05 12:06:00,50.0,37.9,29.82,SW,225,3.6,6.5,63,0.01,,,0.09,WUHU216HW,2013-02-05 20:06:00,
2013-02-05 12:11:00,50.0,37.9,29.82,SW,225,3.4,4.7,63,0.01,,,0.09,WUHU216HW,2013-02-05 20:11:00,
2013-02-05 12:16:00,50.0,39.9,29.82,West,268,4.1,4.7,68,0.01,,,0.09,WUHU216HW,2013-02-05 20:16:00,
2013-02-05 12:21:00,49.7,38.8,29.82,WSW,257,4.1,6.7,66,0.01,,,0.09,WUHU216HW,2013-02-05 20:21:00,
2013-02-05 12:26:00,49.3,37.6,29.83,WSW,246,4.3,6.7,64,0.02,,,0.10,WUHU216HW,2013-02-05 20:26:00,
2013-02-05 12:31:00,49.3,37.6,29.83,WSW,248,4.4,5.8,64,0.02,,,0.10,WUHU216HW,2013-02-05 20:31:00,
2013-02-05 12:36:00,49.1,39.0,29.83,SW,224,4.3,6.7,68,0.04,,,0.12,WUHU216HW,2013-02-05 20:36:00,
2013-02-05 12:41:00,49.0,37.3,29.83,SSW,212,2.5,6.7,64,0.04,,,0.12,WUHU216HW,2013-02-05 20:41:00,
2013-02-05 12:46:00,49.1,36.3,29.83,WSW,248,6.3,6.3,61,0.04,,,0.12,WUHU216HW,2013-02-05 20:46:00,
2013-02-05 12:51:00,49.3,33.8,29.83,SW,225,2.9,6.3,55,0.04,,,0.12,WUHU216HW,2013-02-05 20:51:00,
2013-02-05 12:57:00,49.3,37.6,29.83,WSW,248,4.0,8.1,64,0.04,,,0.12,WUHU216HW,2013-02-05 20:57:00,
2013-02-05 13:02:00,49.3,38.0,29.83,West,279,3.4,8.1,65,0.04,,,0.12,WUHU216HW,2013-02-05 21:02:00,
2013-02-05 13:07:00,49.7,38.0,29.82,NNE,16,0.6,5.1,64,0.03,,,0.12,WUHU216HW,2013-02-05 21:07:00,
2013-02-05 13:12:00,50.4,36.6,29.82,NE,45,1.1,3.4,59,0.03,,,0.12,WUHU216HW,2013-02-05 21:12:00,
2013-02-05 13:17:00,51.3,36.6,29.82,SSE,158,4.5,4.5,57,0.03,,,0.12,WUHU216HW,2013-02-05 21:17:00,
2013-02-05 13:22:00,51.8,40.9,29.82,West,270,3.1,11.0,66,0.03,,,0.12,WUHU216HW,2013-02-05 21:22:00,
2013-02-05 13:27:00,52.6,45.5,29.82,West,260,7.8,11.0,77,0.02,,,0.12,WUHU216HW,2013-02-05 21:27:00,
2013-02-05 13:32:00,52.6,45.9,29.82,WSW,248,11.4,12.1,78,0.02,,,0.12,WUHU216HW,2013-02-05 21:32:00,
2013-02-05 13:37:00,52.4,45.7,29.82,SW,227,9.4,12.1,78,0.00,,,0.12,WUHU216HW,2013-02-05 21:37:00,
2013-02-05 13:42:00,52.4,45.7,29.82,West,261,8.1,11.4,78,0.00,,,0.12,WUHU216HW,2013-02-05 21:42:00,
2013-02-05 13:47:00,52.2,45.5,29.82,WSW,245,5.2,9.8,78,0.00,,,0.12,WUHU216HW,2013-02-05 21:47:00,
2013-02-05 13:53:00,52.2,45.5,29.82,SSW,193,4.9,9.8,78,0.00,,,0.12,WUHU216HW,2013-02-05 21:53:00,
2013-02-05 13:58:00,51.8,45.2,29.82,SW,226,4.6,9.8,78,0.00,,,0.12,WUHU216HW,2013-02-05 21:58:00,
2013-02-05 14:03:00,51.3,44.6,29.82,SSE,158,10.5,10.5,78,0.00,,,0.12,WUHU216HW,2013-02-05 22:03:00,
2013-02-05 14:08:00,51.1,44.5,29.82,SSE,158,5.4,10.5,78,0.00,,,0.12,WUHU216HW,2013-02-05 22:08:00,
2013-02-05 14:13:00,51.1,44.5,29.82,SSW,194,4.6,10.5,78,0.00,,,0.12,WUHU216HW,2013-02-05 22:13:00,
2013-02-05 14:18:00,51.7,45.0,29.81,SSW,203,9.6,9.6,78,0.00,,,0.12,WUHU216HW,2013-02-05 22:18:00,
2013-02-05 14:23:00,52.2,45.2,29.81,WSW,247,6.2,9.6,77,0.00,,,0.12,WUHU216HW,2013-02-05 22:23:00,
2013-02-05 14:28:00,52.2,45.5,29.81,SSW,205,4.7,9.6,78,0.00,,,0.12,WUHU216HW,2013-02-05 22:28:00,
2013-02-05 14:33:00,52.4,45.4,29.82,SW,234,6.4,13.0,77,0.00,,,0.12,WUHU216HW,2013-02-05 22:33:00,
2013-02-05 14:38:00,51.8,44.6,29.82,WSW,242,7.6,15.0,76,0.00,,,0.12,WUHU216HW,2013-02-05 22:38:00,
2013-02-05 14:43:00,51.8,45.2,29.82,SW,235,4.0,15.0,78,0.00,,,0.12,WUHU216HW,2013-02-05 22:43:00,
2013-02-05 14:48:00,51.7,44.7,29.82,SW,228,5.6,10.1,77,0.00,,,0.12,WUHU216HW,2013-02-05 22:48:00,
2013-02-05 14:53:00,51.7,44.4,29.82,WSW,248,7.8,9.6,76,0.00,,,0.12,WUHU216HW,2013-02-05 22:53:00,
2013-02-05 14:59:00,51.5,44.6,29.82,West,270,8.1,10.3,77,0.00,,,0.12,WUHU216HW,2013-02-05 22:59:00,
2013-02-05 15:04:00,51.3,44.6,29.82,WSW,248,4.9,10.3,78,0.00,,,0.12,WUHU216HW,2013-02-05 23:04:00,
2013-02-05 15:09:00,50.9,44.3,29.82,SSW,203,6.3,8.3,78,0.00,,,0.12,WUHU216HW,2013-02-05 23:09:00,
2013-02-05 15:14:00,50.8,44.1,29.82,SSW,203,6.3,6.9,78,0.00,,,0.12,WUHU216HW,2013-02-05 23:14:00,
2013-02-05 15:19:00,50.6,43.9,29.82,WSW,248,6.9,7.8,78,0.00,,,0.12,WUHU216HW,2013-02-05 23:19:00,
2013-02-05 15:24:00,50.4,43.7,29.82,SW,215,4.7,9.2,78,0.00,,,0.12,WUHU216HW,2013-02-05 23:24:00,
2013-02-05 15:29:00,50.4,43.7,29.83,SW,214,4.9,9.8,78,0.00,,,0.12,WUHU216HW,2013-02-05 23:29:00,
2013-02-05 15:34:00,50.4,43.7,29.82,SW,235,4.6,9.8,78,0.00,,,0.12,WUHU216HW,2013-02-05 23:34:00,
2013-02-05 15:39:00,50.2,43.6,29.82,WSW,248,7.6,7.6,78,0.00,,,0.12,WUHU216HW,2013-02-05 23:39:00,
2013-02-05 15:44:00,50.0,43.4,29.82,SW,225,5.1,7.6,78,0.00,,,0.12,WUHU216HW,2013-02-05 23:44:00,
2013-02-05 15:49:00,50.0,43.4,29.83,WSW,246,5.5,8.7,78,0.00,,,0.12,WUHU216HW,2013-02-05 23:49:00,
2013-02-05 15:54:00,50.0,43.4,29.83,SW,236,6.6,8.7,78,0.00,,,0.12,WUHU216HW,2013-02-05 23:54:00,
2013-02-05 15:59:00,50.0,43.4,29.83,SSW,203,8.5,11.0,78,0.00,,,0.12,WUHU216HW,2013-02-05 23:59:00,
2013-02-05 16:04:00,49.7,43.0,29.83,WSW,248,5.8,11.0,78,0.00,,,0.12,WUHU216HW,2013-02-06 00:04:00,
2013-02-05 16:09:00,49.3,42.7,29.83,WSW,248,8.9,9.6,78,0.00,,,0.12,WUHU216HW,2013-02-06 00:09:00,
2013-02-05 16:14:00,49.3,42.7,29.83,SW,225,7.2,9.6,78,0.00,,,0.12,WUHU216HW,2013-02-06 00:14:00,
2013-02-05 16:19:00,49.0,42.7,29.84,WSW,244,6.4,12.1,79,0.00,,,0.12,WUHU216HW,2013-02-06 00:19:00,
2013-02-05 16:25:00,48.6,42.3,29.84,WSW,239,8.9,12.8,79,0.01,,,0.13,WUHU216HW,2013-02-06 00:25:00,
2013-02-05 16:30:00,48.2,41.6,29.84,WSW,242,5.7,12.8,78,0.01,,,0.13,WUHU216HW,2013-02-06 00:30:00,
2013-02-05 16:35:00,47.9,41.3,29.85,WSW,251,7.4,8.9,78,0.02,,,0.14,WUHU216HW,2013-02-06 00:35:00,
2013-02-05 16:40:00,47.3,40.5,29.85,SW,228,7.2,11.4,77,0.03,,,0.15,WUHU216HW,2013-02-06 00:40:00,
2013-02-05 16:45:00,46.8,39.6,29.86,WSW,246,10.9,13.4,76,0.04,,,0.16,WUHU216HW,2013-02-06 00:45:00,
2013-02-05 16:50:00,46.4,38.0,29.86,WSW,246,6.4,13.4,72,0.06,,,0.18,WUHU216HW,2013-02-06 00:50:00,
2013-02-05 16:55:00,46.3,37.5,29.85,SW,225,5.6,10.3,71,0.07,,,0.19,WUHU216HW,2013-02-06 00:55:00,
2013-02-05 17:00:00,46.1,37.6,29.85,SW,235,2.4,6.3,72,0.07,,,0.19,WUHU216HW,2013-02-06 01:00:00,
2013-02-05 17:05:00,45.9,37.7,29.85,WSW,247,2.5,5.4,73,0.07,,,0.19,WUHU216HW,2013-02-06 01:05:00,
2013-02-05 17:10:00,45.7,37.5,29.85,SW,225,1.8,5.4,73,0.07,,,0.19,WUHU216HW,2013-02-06 01:10:00,
2013-02-05 17:15:00,45.4,37.5,29.85,WSW,248,4.3,4.5,74,0.07,,,0.19,WUHU216HW,2013-02-06 01:15:00,
2013-02-05 17:20:00,45.2,36.7,29.85,WSW,248,2.9,4.3,72,0.06,,,0.19,WUHU216HW,2013-02-06 01:20:00,
2013-02-05 17:25:00,45.0,36.8,29.85,WSW,248,0.9,4.3,73,0.06,,,0.19,WUHU216HW,2013-02-06 01:25:00,
2013-02-05 17:30:00,45.0,36.8,29.86,WSW,248,0.2,3.8,73,0.06,,,0.19,WUHU216HW,2013-02-06 01:30:00,
2013-02-05 17:35:00,45.0,36.8,29.86,SE,135,1.1,1.3,73,0.05,,,0.19,WUHU216HW,2013-02-06 01:35:00,
2013-02-05 17:41:00,45.0,36.8,29.86,SE,135,1.1,1.6,73,0.04,,,0.19,WUHU216HW,2013-02-06 01:41:00,
2013-02-05 17:46:00,44.8,36.4,29.86,SE,135,1.3,1.6,72,0.02,,,0.19,WUHU216HW,2013-02-06 01:46:00,
2013-02-05 17:51:00,44.8,36.0,29.86,SSE,149,1.5,2.5,71,0.01,,,0.19,WUHU216HW,2013-02-06 01:51:00,
2013-02-05 17:56:00,44.8,35.6,29.86,SE,135,1.1,2.5,70,0.00,,,0.19,WUHU216HW,2013-02-06 01:56:00,
2013-02-05 18:01:00,44.8,35.3,29.86,SW,225,1.1,2.5,69,0.00,,,0.19,WUHU216HW,2013-02-06 02:01:00,
2013-02-05 18:06:00,44.6,33.9,29.86,SSW,203,5.6,6.5,66,0.00,,,0.19,WUHU216HW,2013-02-06 02:06:00,
2013-02-05 18:11:00,44.6,34.3,29.86,SSW,210,3.5,6.5,67,0.00,,,0.19,WUHU216HW,2013-02-06 02:11:00,
2013-02-05 18:16:00,44.6,34.8,29.86,SSW,200,3.0,5.8,68,0.00,,,0.19,WUHU216HW,2013-02-06 02:16:00,
2013-02-05 18:21:00,44.5,34.9,29.87,SSE,158,4.0,6.7,69,0.00,,,0.19,WUHU216HW,2013-02-06 02:21:00,
2013-02-05 18:26:00,44.3,35.1,29.86,WSW,245,3.5,6.7,70,0.00,,,0.19,WUHU216HW,2013-02-06 02:26:00,
2013-02-05 18:31:00,44.3,35.1,29.86,SW,225,3.6,5.6,70,0.00,,,0.19,WUHU216HW,2013-02-06 02:31:00,
2013-02-05 18:36:00,44.1,35.3,29.87,SSW,201,4.0,5.6,71,0.00,,,0.19,WUHU216HW,2013-02-06 02:36:00,
2013-02-05 18:41:00,43.9,35.2,29.87,SW,214,1.8,5.4,71,0.00,,,0.19,WUHU216HW,2013-02-06 02:41:00,
2013-02-05 18:46:00,43.9,35.5,29.87,South,180,1.8,4.5,72,0.00,,,0.19,WUHU216HW,2013-02-06 02:46:00,
2013-02-05 18:51:00,43.7,34.7,29.87,South,180,4.0,4.0,70,0.00,,,0.19,WUHU216HW,2013-02-06 02:51:00,
2013-02-05 18:57:00,43.6,34.5,29.87,SSE,165,1.3,4.0,70,0.00,,,0.19,WUHU216HW,2013-02-06 02:57:00,
2013-02-05 19:02:00,43.6,34.5,29.88,SSE,158,3.6,3.6,70,0.00,,,0.19,WUHU216HW,2013-02-06 03:02:00,
2013-02-05 19:07:00,43.4,34.3,29.88,WSW,248,1.3,3.6,70,0.00,,,0.19,WUHU216HW,2013-02-06 03:07:00,
2013-02-05 19:12:00,43.4,33.9,29.88,SSE,158,4.3,4.3,69,0.00,,,0.19,WUHU216HW,2013-02-06 03:12:00,
2013-02-05 19:17:00,43.4,33.6,29.88,SSE,156,1.5,4.7,68,0.00,,,0.19,WUHU216HW,2013-02-06 03:17:00,
2013-02-05 19:22:00,43.4,33.6,29.88,WSW,248,2.5,5.1,68,0.00,,,0.19,WUHU216HW,2013-02-06 03:22:00,
2013-02-05 19:27:00,43.6,33.8,29.89,SSE,158,2.0,5.1,68,0.00,,,0.19,WUHU216HW,2013-02-06 03:27:00,
2013-02-05 19:32:00,43.6,33.3,29.89,SSE,151,2.4,4.7,67,0.00,,,0.19,WUHU216HW,2013-02-06 03:32:00,
2013-02-05 19:37:00,43.4,33.1,29.89,WSW,248,2.7,4.5,67,0.00,,,0.19,WUHU216HW,2013-02-06 03:37:00,
2013-02-05 19:42:00,43.2,33.0,29.89,SSW,197,4.0,6.3,67,0.00,,,0.19,WUHU216HW,2013-02-06 03:42:00,
2013-02-05 19:47:00,43.2,32.6,29.89,SSW,195,3.8,6.3,66,0.00,,,0.19,WUHU216HW,2013-02-06 03:47:00,
2013-02-05 19:52:00,43.0,32.9,29.89,SSW,199,2.2,6.0,67,0.00,,,0.19,WUHU216HW,2013-02-06 03:52:00,
2013-02-05 19:57:00,43.0,33.2,29.89,SSW,196,3.3,5.4,68,0.00,,,0.19,WUHU216HW,2013-02-06 03:57:00,
2013-02-05 20:03:00,42.8,32.7,29.89,SSW,213,1.4,5.4,67,0.00,,,0.19,WUHU216HW,2013-02-06 04:03:00,
2013-02-05 20:08:00,42.8,32.7,29.89,South,181,2.8,5.6,67,0.00,,,0.19,WUHU216HW,2013-02-06 04:08:00,
2013-02-05 20:13:00,42.8,32.2,29.89,SW,225,2.2,6.5,66,0.00,,,0.19,WUHU216HW,2013-02-06 04:13:00,
2013-02-05 20:18:00,42.7,32.0,29.89,SSW,207,2.6,6.5,66,0.00,,,0.19,WUHU216HW,2013-02-06 04:18:00,
2013-02-05 20:23:00,42.7,31.7,29.89,SSW,212,2.7,4.0,65,0.00,,,0.19,WUHU216HW,2013-02-06 04:23:00,
2013-02-05 20:28:00,42.5,31.2,29.90,SSW,198,3.8,5.4,64,0.00,,,0.19,WUHU216HW,2013-02-06 04:28:00,
2013-02-05 20:33:00,42.5,31.2,29.90,SW,232,1.6,5.4,64,0.00,,,0.19,WUHU216HW,2013-02-06 04:33:00,
2013-02-05 20:38:00,42.5,29.5,29.90,SSW,203,4.3,4.9,60,0.00,,,0.19,WUHU216HW,2013-02-06 04:38:00,
2013-02-05 20:43:00,42.7,29.7,29.90,SW,220,2.8,5.8,60,0.00,,,0.19,WUHU216HW,2013-02-06 04:43:00,
2013-02-05 20:48:00,42.8,28.6,29.90,WSW,248,4.5,5.8,57,0.02,,,0.21,WUHU216HW,2013-02-06 04:48:00,
2013-02-05 20:53:00,43.0,28.8,29.91,South,184,3.4,5.4,57,0.02,,,0.21,WUHU216HW,2013-02-06 04:53:00,
2013-02-05 20:58:00,43.0,27.9,29.90,SSE,158,4.0,5.1,55,0.02,,,0.21,WUHU216HW,2013-02-06 04:58:00,
2013-02-05 21:00:00,43.2,27.6,29.90,SSW,203,4.9,5.1,54,0.02,,,0.21,WUHU216HW,2013-02-06 05:00:00,
2013-02-05 21:06:00,43.0,28.4,29.90,South,183,1.5,4.9,56,0.02,,,0.21,WUHU216HW,2013-02-06 05:06:00,
2013-02-05 21:11:00,42.8,28.6,29.91,SSW,198,3.0,4.5,57,0.02,,,0.21,WUHU216HW,2013-02-06 05:11:00,
2013-02-05 21:16:00,42.8,28.6,29.91,South,182,3.0,4.5,57,0.02,,,0.21,WUHU216HW,2013-02-06 05:16:00,
2013-02-05 21:21:00,43.0,27.9,29.91,South,171,4.5,6.5,55,0.02,,,0.21,WUHU216HW,2013-02-06 05:21:00,
2013-02-05 21:26:00,43.2,27.2,29.91,South,170,3.5,6.5,53,0.02,,,0.21,WUHU216HW,2013-02-06 05:26:00,
2013-02-05 21:31:00,43.6,25.7,29.91,SE,135,4.0,7.4,49,0.02,,,0.21,WUHU216HW,2013-02-06 05:31:00,
2013-02-05 21:36:00,43.6,27.6,29.92,South,180,4.0,7.4,53,0.02,,,0.21,WUHU216HW,2013-02-06 05:36:00,
2013-02-05 21:41:00,43.6,26.2,29.92,SSE,158,4.0,6.9,50,0.02,,,0.21,WUHU216HW,2013-02-06 05:41:00,
2013-02-05 21:46:00,43.7,26.8,29.92,SE,135,4.7,6.9,51,0.00,,,0.21,WUHU216HW,2013-02-06 05:46:00,
2013-02-05 21:51:00,43.7,25.8,29.92,SSE,155,4.4,6.5,49,0.00,,,0.21,WUHU216HW,2013-02-06 05:51:00,
2013-02-05 21:56:00,43.9,24.9,29.92,SSE,155,2.7,6.5,47,0.00,,,0.21,WUHU216HW,2013-02-06 05:56:00,
2013-02-05 22:01:00,43.7,26.4,29.92,South,180,2.7,7.8,50,0.00,,,0.21,WUHU216HW,2013-02-06 06:01:00,
2013-02-05 22:06:00,43.7,26.8,29.92,South,173,1.7,7.8,51,0.00,,,0.21,WUHU216HW,2013-02-06 06:06:00,
2013-02-05 22:12:00,43.6,27.1,29.92,SW,225,4.9,7.4,52,0.00,,,0.21,WUHU216HW,2013-02-06 06:12:00,
2013-02-05 22:17:00,43.6,26.2,29.92,South,175,3.6,8.7,50,0.00,,,0.21,WUHU216HW,2013-02-06 06:17:00,
2013-02-05 22:22:00,43.6,25.7,29.92,South,180,4.5,8.7,49,0.00,,,0.21,WUHU216HW,2013-02-06 06:22:00,
2013-02-05 22:27:00,43.6,25.1,29.92,SSE,158,6.9,8.3,48,0.00,,,0.21,WUHU216HW,2013-02-06 06:27:00,
2013-02-05 22:32:00,43.6,26.2,29.91,South,169,5.6,8.9,50,0.00,,,0.21,WUHU216HW,2013-02-06 06:32:00,
2013-02-05 22:37:00,43.6,27.1,29.92,SSE,165,5.9,8.9,52,0.00,,,0.21,WUHU216HW,2013-02-06 06:37:00,
2013-02-05 22:42:00,43.6,27.6,29.92,South,186,4.9,8.5,53,0.00,,,0.21,WUHU216HW,2013-02-06 06:42:00,
2013-02-05 22:47:00,43.6,27.6,29.92,SSW,193,5.0,8.5,53,0.00,,,0.21,WUHU216HW,2013-02-06 06:47:00,
2013-02-05 22:52:00,43.6,28.8,29.92,SSE,158,4.7,6.3,56,0.00,,,0.21,WUHU216HW,2013-02-06 06:52:00,
2013-02-05 22:57:00,43.4,29.5,29.92,SSW,203,4.7,11.0,58,0.00,,,0.21,WUHU216HW,2013-02-06 06:57:00,
2013-02-05 23:02:00,43.2,29.8,29.92,SW,226,6.0,11.0,59,0.00,,,0.21,WUHU216HW,2013-02-06 07:02:00,
2013-02-05 23:07:00,43.0,29.6,29.92,SSE,158,9.2,9.2,59,0.00,,,0.21,WUHU216HW,2013-02-06 07:07:00,
2013-02-05 23:12:00,42.8,29.4,29.92,South,172,3.9,9.2,59,0.00,,,0.21,WUHU216HW,2013-02-06 07:12:00,
2013-02-05 23:17:00,42.8,29.4,29.92,SSE,158,5.1,7.4,59,0.00,,,0.21,WUHU216HW,2013-02-06 07:17:00,
2013-02-05 23:22:00,42.7,29.3,29.93,SSW,194,4.6,7.4,59,0.00,,,0.21,WUHU216HW,2013-02-06 07:22:00,
2013-02-05 23:28:00,42.7,28.5,29.92,ESE,113,6.0,7.6,57,0.00,,,0.21,WUHU216HW,2013-02-06 07:28:00,
2013-02-05 23:33:00,42.7,28.5,29.92,SSW,203,4.0,8.5,57,0.00,,,0.21,WUHU216HW,2013-02-06 07:33:00,
2013-02-05 23:38:00,42.7,28.5,29.93,South,180,3.3,8.5,57,0.00,,,0.21,WUHU216HW,2013-02-06 07:38:00,
2013-02-05 23:43:00,42.5,27.8,29.93,South,177,4.7,7.6,56,0.00,,,0.21,WUHU216HW,2013-02-06 07:43:00,
2013-02-05 23:48:00,42.5,27.8,29.93,SSW,207,4.4,7.4,56,0.00,,,0.21,WUHU216HW,2013-02-06 07:48:00,
2013-02-05 23:53:00,42.5,27.4,29.93,South,189,4.7,7.6,55,0.00,,,0.21,WUHU216HW,2013-02-06 07:53:00,
2013-02-05 23:58:00,42.5,27.8,29.93,South,170,2.2,7.6,56,0.00,,,0.21,WUHU216HW,2013-02-06 07:58:00,